Weather observations for the past three days for
Calhoun Tom B. David Field Airport
| Date | Time (edt) | Wind (mph) | Vis. (mi.) | Weather | Sky Cond. | Temperature (ºF) | Relative Humidity | Wind Chill (°F) | Heat Index (°F) | Pressure | Precipitation (in) | ||||||
|---|---|---|---|---|---|---|---|---|---|---|---|---|---|---|---|---|---|
| Air | Dwpt | 6 hour | altimeter (in) | sea level (mb) | 1 hr | 3 hr | 6 hr | ||||||||||
| Max. | Min. | ||||||||||||||||
| 10 | 15:55 | Calm | 10.00 | Fair | CLR | 82.4 | 50 | 32% | 81 | 30.01 | 0.0 | ||||||
| 10 | 15:35 | Vrbl 6 | 10.00 | Fair | CLR | 82.4 | 46.4 | 28% | 81 | 30.01 | 0.0 | ||||||
| 10 | 15:15 | Vrbl 5 | 10.00 | Fair | CLR | 80.6 | 51.8 | 37% | 80 | 30.02 | 0.0 | ||||||
| 10 | 14:55 | NW 9 | 10.00 | Fair | CLR | 80.6 | 51.8 | 37% | 80 | 30.02 | 0.0 | ||||||
| 10 | 14:35 | NE 6 | 10.00 | Fair | CLR | 80.6 | 50 | 34% | 80 | 30.03 | 0.0 | ||||||
| 10 | 13:55 | Calm | 10.00 | Fair | CLR | 78.8 | 55.4 | 79 | 59.7 | 45% | 79 | 30.04 | 0.0 | ||||
| 10 | 13:35 | NW 6 | 10.00 | Fair | CLR | 78.8 | 53.6 | 42% | 79 | 30.04 | 0.0 | ||||||
| 10 | 13:15 | NE 5 | 10.00 | Fair | CLR | 77 | 53.6 | 44% | 78 | 30.05 | 0.0 | ||||||
| 10 | 12:55 | Calm | 10.00 | Fair | CLR | 77 | 60.8 | 57% | 79 | 30.05 | 0.0 | ||||||
| 10 | 12:35 | Calm | 10.00 | Fair | CLR | 75.2 | 68 | 78% | 76 | 30.05 | 0.0 | ||||||
| 10 | 12:15 | Vrbl 7 | 10.00 | Fair | CLR | 73.4 | 68 | 83% | 30.06 | 0.0 | |||||||
| 10 | 11:55 | NW 6 | 10.00 | Fair | CLR | 73.4 | 68 | 83% | 30.06 | 0.0 | |||||||
| 10 | 11:35 | Calm | 10.00 | Fair | CLR | 69.8 | 68 | 94% | 30.06 | 0.0 | |||||||
| 10 | 11:15 | Calm | 10.00 | A Few Clouds | FEW007 | 68 | 68 | 100% | 30.06 | 0.0 | |||||||
| 10 | 10:55 | Calm | 8.00 | Mostly Cloudy | BKN005 | 66.2 | 66.2 | 100% | 30.06 | 0.0 | |||||||
| 10 | 10:35 | Calm | 6.00 | Fog/Mist | OVC005 | 64.4 | 64.4 | 100% | 30.06 | 0.0 | |||||||
| 10 | 10:15 | Calm | 5.00 | Fog/Mist | OVC003 | 62.6 | 62.6 | 100% | 30.06 | 0.0 | |||||||
| 10 | 09:55 | Calm | 3.00 | Fog/Mist | OVC003 | 62.6 | 62.6 | 100% | 30.06 | 0.0 | |||||||
| 10 | 09:35 | Calm | 2.00 | Fog/Mist | OVC003 | 62.6 | 62.6 | 100% | 30.06 | 0.0 | |||||||
| 10 | 08:55 | Calm | 0.25 | Drizzle Fog | OVC001 | 60.8 | 60.8 | 100% | 30.05 | 0.0 | |||||||
| 10 | 08:35 | Calm | 0.15 | Fog | OVC001 | 60.8 | 60.8 | 100% | 30.04 | 0.0 | |||||||
| 10 | 08:15 | Calm | 0.25 | Fog | OVC001 | 60.8 | 60.8 | 100% | 30.04 | 0.0 | |||||||
| 10 | 07:55 | Calm | 0.15 | Fog | OVC001 | 60.8 | 60.8 | 61.2 | 54.7 | 100% | 30.04 | 0.0 | |||||
| 10 | 07:35 | Calm | 0.15 | Fog | OVC001 | 59 | 59 | 100% | 30.02 | 0.0 | |||||||
| 10 | 07:15 | Calm | 0.15 | Fog | OVC001 | 59 | 59 | 100% | 30.01 | 0.0 | |||||||
| 10 | 06:55 | Calm | 0.15 | Fog | OVC001 | 59 | 59 | 100% | 30 | 0.0 | |||||||
| 10 | 06:35 | Calm | 0.15 | Fog | OVC001 | 57.2 | 57.2 | 100% | 30 | 0.0 | |||||||
| 10 | 06:15 | Calm | 0.15 | Fog | OVC001 | 57.2 | 57.2 | 100% | 29.99 | 0.0 | |||||||
| 10 | 05:55 | Calm | 10.00 | Overcast | OVC001 | 55.4 | 55.4 | 100% | 29.98 | 0.0 | |||||||
| 10 | 05:35 | Calm | 10.00 | Mostly Cloudy | BKN001 | 55.4 | 55.4 | 100% | 29.98 | 0.0 | |||||||
| 10 | 05:15 | Calm | 7.00 | A Few Clouds | FEW001 | 55.4 | 55.4 | 100% | 29.97 | 0.0 | |||||||
| 10 | 04:55 | Calm | 1.25 | Fog/Mist | CLR | 55.4 | 55.4 | 100% | 29.97 | 0.0 | |||||||
| 10 | 04:35 | Calm | 2.00 | Fog/Mist | CLR | 57.2 | 57.2 | 100% | 29.96 | 0.0 | |||||||
| 10 | 04:15 | Calm | 4.00 | Fog/Mist | CLR | 57.2 | 57.2 | 100% | 29.95 | 0.0 | |||||||
| 10 | 03:55 | Calm | 7.00 | Fair | CLR | 57.2 | 57.2 | 100% | 29.95 | 0.0 | |||||||
| 10 | 03:35 | Calm | 10.00 | Fair | CLR | 59 | 59 | 100% | 29.94 | 0.0 | |||||||
| 10 | 03:15 | Calm | 9.00 | Fair | CLR | 59 | 59 | 100% | 29.94 | 0.0 | |||||||
| 10 | 02:55 | Calm | 6.00 | Fog/Mist | CLR | 59 | 59 | 100% | 29.94 | 0.0 | |||||||
| 10 | 02:35 | Calm | 8.00 | Fair | CLR | 59 | 59 | 100% | 29.94 | 0.0 | |||||||
| 10 | 02:15 | Calm | 10.00 | Fair | CLR | 60.8 | 60.8 | 100% | 29.95 | 0.0 | |||||||
| 10 | 01:55 | Calm | 8.00 | Fair | CLR | 60.8 | 60.8 | 72.3 | 61 | 100% | 29.95 | 0.0 | |||||
| 10 | 01:35 | Calm | 10.00 | Fair | CLR | 60.8 | 60.8 | 100% | 29.95 | 0.0 | |||||||
| 10 | 01:15 | S 3 | 10.00 | Fair | CLR | 60.8 | 60.8 | 100% | 29.95 | 0.0 | |||||||
| 10 | 00:55 | Calm | 10.00 | Fair | CLR | 62.6 | 62.6 | 100% | 29.96 | 0.0 | |||||||
| 10 | 00:36 | Calm | 10.00 | Partly Cloudy | FEW034 SCT050 | 62.6 | 62.6 | 100% | 29.96 | 0.0 | |||||||
| 10 | 00:15 | Calm | 10.00 | Mostly Cloudy | BKN050 | 62.6 | 62.6 | 100% | 29.96 | 0.0 | |||||||
| 09 | 23:55 | S 5 | 10.00 | Overcast | OVC050 | 64.4 | 64.4 | 100% | 29.97 | 0.0 | |||||||
| 09 | 23:15 | S 3 | 10.00 | Mostly Cloudy | BKN050 | 64.4 | 64.4 | 100% | 29.95 | 0.0 | |||||||
| 09 | 22:55 | S 5 | 10.00 | Fair | CLR | 64.4 | 64.4 | 100% | 29.94 | 0.0 | |||||||
| 09 | 22:35 | SW 3 | 10.00 | Fair | CLR | 64.4 | 64.4 | 100% | 29.94 | 0.0 | |||||||
| 09 | 22:15 | S 3 | 10.00 | Fair | CLR | 64.4 | 64.4 | 100% | 29.93 | 0.0 | |||||||
| 09 | 21:55 | Calm | 10.00 | Fair | CLR | 66.2 | 66.2 | 100% | 29.92 | 0.0 | |||||||
| 09 | 21:35 | Calm | 10.00 | Fair | CLR | 66.2 | 66.2 | 100% | 29.91 | 0.0 | |||||||
| 09 | 21:15 | Calm | 10.00 | Fair | CLR | 68 | 68 | 100% | 29.91 | 0.0 | |||||||
| 09 | 20:55 | Calm | 10.00 | Fair | CLR | 68 | 68 | 100% | 29.9 | 0.0 | |||||||
| 09 | 20:35 | Calm | 10.00 | Fair | CLR | 69.8 | 68 | 94% | 29.9 | 0.0 | |||||||
| 09 | 20:15 | Calm | 10.00 | Fair | CLR | 71.6 | 66.2 | 83% | 29.89 | 0.0 | |||||||
| 09 | 19:55 | Calm | 10.00 | Fair | CLR | 71.6 | 66.2 | 76.3 | 70 | 83% | 29.89 | 0.0 | |||||
| 09 | 19:35 | Calm | 10.00 | Fair | CLR | 73.4 | 66.2 | 78% | 29.89 | 0.0 | |||||||
| 09 | 19:15 | SW 5 | 10.00 | Fair | CLR | 73.4 | 66.2 | 78% | 29.88 | 0.0 | |||||||
| 09 | 18:55 | W 5 | 10.00 | Fair | CLR | 75.2 | 64.4 | 69% | 77 | 29.88 | 0.0 | ||||||
| 09 | 18:35 | SW 6 | 10.00 | A Few Clouds | FEW039 | 75.2 | 64.4 | 69% | 77 | 29.87 | 0.0 | ||||||
| 09 | 18:15 | W 5 | 10.00 | A Few Clouds | FEW040 | 75.2 | 64.4 | 69% | 77 | 29.87 | 0.0 | ||||||
| 09 | 17:55 | Calm | 10.00 | A Few Clouds | FEW042 | 75.2 | 66.2 | 74% | 77 | 29.87 | 0.0 | ||||||
| 09 | 17:35 | W 6 | 10.00 | A Few Clouds | FEW037 FEW044 | 75.2 | 64.4 | 69% | 77 | 29.87 | 0.0 | ||||||
| 09 | 17:15 | Calm | 10.00 | Mostly Cloudy | BKN037 BKN044 | 75.2 | 64.4 | 69% | 77 | 29.86 | 0.0 | ||||||
| 09 | 16:55 | NW 5 | 10.00 | A Few Clouds | FEW033 FEW040 | 75.2 | 64.4 | 69% | 77 | 29.87 | 0.0 | ||||||
| 09 | 16:35 | W 5 | 10.00 | Partly Cloudy | SCT033 | 75.2 | 64.4 | 69% | 77 | 29.87 | 0.0 | ||||||
| 09 | 16:15 | Calm | 10.00 | Partly Cloudy | SCT033 | 73.4 | 64.4 | 74% | 29.87 | 0.0 | |||||||
| 09 | 15:55 | N 3 | 10.00 | A Few Clouds | FEW033 | 73.4 | 64.4 | 74% | 29.86 | 0.0 | |||||||
| 09 | 15:35 | W 6 | 10.00 | Fair | CLR | 73.4 | 64.4 | 74% | 29.87 | 0.0 | |||||||
| 09 | 15:15 | W 5 | 10.00 | Fair | CLR | 73.4 | 64.4 | 74% | 29.88 | 0.0 | |||||||
| 09 | 14:55 | SE 3 | 10.00 | A Few Clouds | FEW028 | 71.6 | 64.4 | 78% | 29.88 | 0.0 | |||||||
| 09 | 14:35 | Calm | 10.00 | A Few Clouds | FEW027 | 71.6 | 64.4 | 78% | 29.89 | 0.0 | |||||||
| 09 | 14:15 | Vrbl 5 | 10.00 | Mostly Cloudy | BKN025 | 71.6 | 64.4 | 78% | 29.89 | 0.0 | |||||||
| 09 | 13:55 | Calm | 10.00 | Fair | CLR | 69.8 | 64.4 | 70.5 | 58.5 | 83% | 29.89 | 0.0 | |||||
| 09 | 13:35 | Calm | 10.00 | Fair | CLR | 69.8 | 64.4 | 83% | 29.89 | 0.0 | |||||||
| 09 | 13:15 | Calm | 10.00 | Fair | CLR | 68 | 62.6 | 83% | 29.9 | 0.0 | |||||||
| 09 | 12:55 | SW 3 | 10.00 | Mostly Cloudy | BKN019 BKN025 | 68 | 62.6 | 83% | 29.9 | 0.0 | |||||||
| 09 | 12:35 | W 5 | 10.00 | Overcast | BKN017 OVC024 | 68 | 64.4 | 88% | 29.91 | 0.0 | |||||||
| 09 | 12:15 | S 9 | 10.00 | Mostly Cloudy | BKN013 BKN021 BKN026 | 66.2 | 64.4 | 94% | 29.92 | 0.0 | |||||||
| 09 | 11:55 | Vrbl 7 | 10.00 | Mostly Cloudy | SCT013 BKN021 | 64.4 | 64.4 | 100% | 29.92 | 0.0 | |||||||
| 09 | 11:35 | SW 7 | 10.00 | Overcast | OVC011 | 64.4 | 64.4 | 100% | 29.92 | 0.0 | |||||||
| 09 | 11:15 | Vrbl 3 | 10.00 | Overcast | OVC009 | 62.6 | 62.6 | 100% | 29.93 | 0.0 | |||||||
| 09 | 10:55 | SW 6 | 10.00 | Overcast | OVC009 | 62.6 | 62.6 | 100% | 29.93 | 0.0 | |||||||
| 09 | 10:35 | SW 3 | 10.00 | Overcast | OVC009 | 62.6 | 62.6 | 100% | 29.93 | 0.0 | |||||||
| 09 | 10:15 | Calm | 10.00 | Overcast | OVC009 | 62.6 | 62.6 | 100% | 29.91 | 0.0 | |||||||
| 09 | 09:55 | Calm | 10.00 | Overcast | OVC011 | 60.8 | 60.8 | 100% | 29.9 | 0.0 | |||||||
| 09 | 09:35 | SW 3 | 10.00 | Overcast | OVC011 | 60.8 | 60.8 | 100% | 29.9 | 0.0 | |||||||
| 09 | 09:15 | SW 5 | 10.00 | Overcast | OVC013 | 60.8 | 60.8 | 100% | 29.9 | 0.0 | |||||||
| 09 | 08:55 | Calm | 10.00 | Overcast | OVC013 | 60.8 | 60.8 | 100% | 29.9 | 0.0 | |||||||
| 09 | 08:35 | Calm | 10.00 | Overcast | OVC013 | 59 | 59 | 100% | 29.9 | 0.0 | |||||||
| 09 | 08:15 | Calm | 10.00 | Overcast | OVC013 | 59 | 59 | 100% | 29.9 | 0.0 | |||||||
| 09 | 07:55 | Calm | 10.00 | Overcast | OVC013 | 59 | 59 | 58.6 | 54 | 100% | 29.89 | 0.0 | |||||
| 09 | 07:35 | Calm | 10.00 | Overcast | BKN015 OVC021 | 59 | 59 | 100% | 29.89 | 0.0 | |||||||
| 09 | 07:15 | Calm | 10.00 | Overcast | BKN017 OVC022 | 57.2 | 57.2 | 100% | 29.88 | 0.0 | |||||||
| 09 | 06:55 | Calm | 10.00 | Overcast | OVC017 | 57.2 | 57.2 | 100% | 29.88 | 0.0 | |||||||
| 09 | 06:35 | S 3 | 10.00 | Overcast | OVC019 | 57.2 | 57.2 | 100% | 29.88 | 0.0 | |||||||
| 09 | 06:15 | Calm | 10.00 | Overcast | OVC023 | 57.2 | 57.2 | 100% | 29.88 | 0.0 | |||||||
| 09 | 05:55 | Calm | 10.00 | Overcast | BKN025 OVC036 | 57.2 | 57.2 | 100% | 29.89 | 0.0 | |||||||
| 09 | 05:35 | Calm | 10.00 | Overcast | FEW027 BKN038 OVC044 | 57.2 | 57.2 | 100% | 29.89 | 0.0 | |||||||
| 09 | 05:15 | Calm | 10.00 | Overcast | SCT020 BKN041 OVC090 | 55.4 | 55.4 | 100% | 29.9 | 0.0 | |||||||
| 09 | 04:55 | Calm | 10.00 | Overcast | BKN022 OVC060 | 55.4 | 55.4 | 100% | 29.89 | 0.0 | |||||||
| 09 | 04:35 | Calm | 10.00 | Overcast | BKN060 OVC100 | 55.4 | 55.4 | 100% | 29.88 | 0.0 | |||||||
| 09 | 03:55 | Calm | 10.00 | Overcast | FEW025 OVC060 | 55.4 | 55.4 | 100% | 29.89 | 0.0 | |||||||
| 09 | 03:35 | Calm | 10.00 | Overcast | SCT025 OVC060 | 55.4 | 55.4 | 100% | 29.89 | 0.0 | |||||||
| 09 | 03:15 | Calm | 10.00 | Overcast | BKN025 OVC055 | 55.4 | 55.4 | 100% | 29.89 | 0.0 | |||||||
| 09 | 02:55 | Calm | 10.00 | Overcast | BKN023 OVC060 | 55.4 | 55.4 | 100% | 29.89 | 0.0 | |||||||
| 09 | 02:35 | Calm | 10.00 | Overcast | SCT023 SCT029 OVC060 | 55.4 | 55.4 | 100% | 29.9 | 0.0 | |||||||
| 09 | 02:15 | Calm | 10.00 | Mostly Cloudy | SCT029 BKN060 BKN070 | 55.4 | 55.4 | 100% | 29.9 | 0.0 | |||||||
| 09 | 01:55 | Calm | 10.00 | Mostly Cloudy | BKN029 BKN060 BKN070 | 53.6 | 53.6 | 64.2 | 54.1 | 100% | 29.91 | 0.0 | |||||
| 09 | 01:35 | Calm | 10.00 | Mostly Cloudy | FEW025 SCT031 BKN065 | 55.4 | 55.4 | 100% | 29.93 | 0.0 | |||||||
| 09 | 01:15 | Calm | 10.00 | Partly Cloudy | SCT060 | 55.4 | 55.4 | 100% | 29.93 | 0.0 | |||||||
| 09 | 00:55 | Calm | 10.00 | Mostly Cloudy | BKN060 | 55.4 | 55.4 | 100% | 29.92 | 0.0 | |||||||
| 09 | 00:35 | Calm | 10.00 | Mostly Cloudy | BKN060 | 57.2 | 57.2 | 100% | 29.92 | 0.0 | |||||||
| 09 | 00:15 | Calm | 10.00 | A Few Clouds | FEW060 | 55.4 | 55.4 | 100% | 29.92 | 0.0 | |||||||
| 08 | 23:55 | S 3 | 10.00 | Fair | CLR | 57.2 | 57.2 | 100% | 29.94 | 0.0 | |||||||
| 08 | 23:35 | Calm | 10.00 | Fair | CLR | 57.2 | 57.2 | 100% | 29.94 | 0.0 | |||||||
| 08 | 23:15 | Calm | 10.00 | Fair | CLR | 57.2 | 57.2 | 100% | 29.94 | 0.0 | |||||||
| 08 | 22:55 | Calm | 10.00 | Fair | CLR | 59 | 59 | 100% | 29.94 | 0.0 | |||||||
| 08 | 22:35 | S 3 | 10.00 | Fair | CLR | 57.2 | 57.2 | 100% | 29.95 | 0.0 | |||||||
| 08 | 22:15 | SW 5 | 10.00 | Fair | CLR | 59 | 59 | 100% | 29.95 | 0.0 | |||||||
| 08 | 21:55 | S 3 | 10.00 | Fair | CLR | 59 | 59 | 100% | 29.94 | 0.0 | |||||||
| 08 | 21:35 | S 3 | 10.00 | Fair | CLR | 60.8 | 60.8 | 100% | 29.94 | 0.0 | |||||||
| 08 | 21:15 | Calm | 10.00 | Fair | CLR | 60.8 | 60.8 | 100% | 29.93 | 0.0 | |||||||
| 08 | 20:35 | SW 5 | 10.00 | Fair | CLR | 62.6 | 62.6 | 100% | 29.93 | 0.0 | |||||||
| 08 | 20:15 | Calm | 10.00 | Fair | CLR | 62.6 | 62.6 | 100% | 29.93 | 0.0 | |||||||
| 08 | 19:55 | Calm | 10.00 | Fair | CLR | 64.4 | 62.6 | 73 | 64 | 94% | 29.93 | 0.0 | |||||
| 08 | 19:35 | Calm | 10.00 | Fair | CLR | 66.2 | 59 | 78% | 29.93 | 0.0 | |||||||
| 08 | 19:15 | Calm | 10.00 | Fair | CLR | 66.2 | 57.2 | 73% | 29.93 | 0.0 | |||||||
| 08 | 18:55 | Calm | 10.00 | Fair | CLR | 68 | 55.4 | 64% | 29.93 | 0.0 | |||||||
| 08 | 18:15 | SW 5 | 10.00 | Fair | CLR | 69.8 | 51.8 | 53% | 29.94 | 0.0 | |||||||
| 08 | 17:55 | SW 3 | 10.00 | Fair | CLR | 69.8 | 50 | 50% | 29.94 | 0.0 | |||||||
| 08 | 17:35 | SW 5 | 10.00 | Fair | CLR | 69.8 | 50 | 50% | 29.93 | 0.0 | |||||||
| 08 | 17:15 | SW 6 | 10.00 | Fair | CLR | 69.8 | 46.4 | 43% | 29.93 | 0.0 | |||||||
| 08 | 16:55 | SW 8 | 10.00 | Fair | CLR | 71.6 | 48.2 | 44% | 29.93 | 0.0 | |||||||
| 08 | 16:35 | SW 6 | 10.00 | Fair | CLR | 71.6 | 46.4 | 41% | 29.94 | 0.0 | |||||||
| 08 | 16:15 | SW 8 | 10.00 | Fair | CLR | 73.4 | 48.2 | 41% | 29.94 | 0.0 | |||||||
| 08 | 15:55 | Vrbl 5 | 10.00 | Fair | CLR | 71.6 | 46.4 | 41% | 29.95 | 0.0 | |||||||
| 08 | 15:35 | SW 5 | 10.00 | Fair | CLR | 71.6 | 44.6 | 38% | 29.95 | 0.0 | |||||||
| 08 | 15:15 | SW 6 | 10.00 | Fair | CLR | 71.6 | 42.8 | 36% | 29.97 | 0.0 | |||||||
| 08 | 14:55 | Vrbl 6 | 10.00 | Fair | CLR | 71.6 | 44.6 | 38% | 29.98 | 0.0 | |||||||
| 08 | 14:35 | W 6 | 10.00 | Fair | CLR | 71.6 | 44.6 | 38% | 29.98 | 0.0 | |||||||
| 08 | 14:15 | Vrbl 6 | 10.00 | Fair | CLR | 71.6 | 44.6 | 38% | 29.99 | 0.0 | |||||||
| 08 | 13:55 | W 5 | 10.00 | Fair | CLR | 71.6 | 42.8 | 71.4 | 50 | 36% | 29.99 | 0.0 | |||||
| 08 | 13:35 | Vrbl 3 | 10.00 | Fair | CLR | 69.8 | 46.4 | 43% | 30 | 0.0 | |||||||
| 08 | 13:15 | SW 9 | 10.00 | Fair | CLR | 69.8 | 46.4 | 43% | 30.01 | 0.0 | |||||||
| 08 | 12:55 | Vrbl 6 | 10.00 | Fair | CLR | 68 | 44.6 | 43% | 30.02 | 0.0 | |||||||
| 08 | 12:35 | Calm | 10.00 | Fair | CLR | 68 | 46.4 | 46% | 30.03 | 0.0 | |||||||
| 08 | 12:15 | Vrbl 5 | 10.00 | Fair | CLR | 68 | 50 | 53% | 30.05 | 0.0 | |||||||
| 08 | 11:55 | Calm | 10.00 | Fair | CLR | 66.2 | 50 | 56% | 30.05 | 0.0 | |||||||
| 08 | 11:35 | S 6 | 10.00 | Fair | CLR | 66.2 | 51.8 | 60% | 30.06 | 0.0 | |||||||
| 08 | 11:15 | Vrbl 5 | 10.00 | Fair | CLR | 64.4 | 51.8 | 64% | 30.06 | 0.0 | |||||||
| 08 | 10:55 | Calm | 10.00 | Fair | CLR | 64.4 | 51.8 | 64% | 30.07 | 0.0 | |||||||
| 08 | 10:35 | Calm | 10.00 | Fair | CLR | 62.6 | 53.6 | 73% | 30.07 | 0.0 | |||||||
| 08 | 10:15 | E 5 | 10.00 | Fair | CLR | 60.8 | 53.6 | 77% | 30.07 | 0.0 | |||||||
| 08 | 09:55 | Calm | 10.00 | Fair | CLR | 59 | 53.6 | 82% | 30.07 | 0.0 | |||||||
| 08 | 09:15 | Calm | 10.00 | Fair | CLR | 57.2 | 53.6 | 88% | 30.07 | 0.0 | |||||||
| 08 | 08:35 | Calm | 10.00 | Fair | CLR | 53.6 | 51.8 | 94% | 30.08 | 0.0 | |||||||
| 08 | 08:15 | Calm | 10.00 | Fair | CLR | 51.8 | 51.8 | 100% | 30.07 | 0.0 | |||||||
| 08 | 07:55 | Calm | 10.00 | Fair | CLR | 50 | 50 | 53.1 | 48.2 | 100% | 30.06 | 0.0 | |||||
| 08 | 07:35 | Calm | 10.00 | Fair | CLR | 50 | 50 | 100% | 30.05 | 0.0 | |||||||
| 08 | 07:15 | Calm | 10.00 | Fair | CLR | 48.2 | 48.2 | 100% | 30.04 | 0.0 | |||||||
| 08 | 06:55 | Calm | 10.00 | Fair | CLR | 48.2 | 48.2 | 100% | 30.03 | 0.0 | |||||||
| 08 | 06:35 | Calm | 10.00 | Fair | CLR | 50 | 50 | 100% | 30.02 | 0.0 | |||||||
| 08 | 06:15 | Calm | 10.00 | Fair | CLR | 50 | 50 | 100% | 30.01 | 0.0 | |||||||
| 08 | 05:55 | Calm | 10.00 | Fair | CLR | 50 | 50 | 100% | 30 | 0.0 | |||||||
| 08 | 05:35 | Calm | 10.00 | Fair | CLR | 50 | 50 | 100% | 30 | 0.0 | |||||||
| 08 | 05:15 | Calm | 10.00 | Fair | CLR | 51.8 | 51.8 | 100% | 29.99 | 0.0 | |||||||
| 08 | 04:55 | Calm | 10.00 | Fair | CLR | 51.8 | 51.8 | 100% | 29.99 | 0.0 | |||||||
| 08 | 04:35 | Calm | 10.00 | Fair | CLR | 51.8 | 51.8 | 100% | 29.99 | 0.0 | |||||||
| 08 | 04:15 | Calm | 10.00 | Fair | CLR | 51.8 | 51.8 | 100% | 29.99 | 0.0 | |||||||
| 08 | 03:35 | Calm | 10.00 | Fair | CLR | 51.8 | 51.8 | 100% | 29.99 | 0.0 | |||||||
| 08 | 03:15 | Calm | 10.00 | Fair | CLR | 51.8 | 51.8 | 100% | 29.99 | 0.0 | |||||||
| 08 | 02:55 | Calm | 10.00 | Fair | CLR | 51.8 | 51.8 | 100% | 30 | 0.0 | |||||||
| 08 | 02:35 | Calm | 10.00 | Fair | CLR | 51.8 | 51.8 | 100% | 30 | 0.0 | |||||||
| 08 | 02:15 | Calm | 10.00 | Fair | CLR | 51.8 | 51.8 | 100% | 30 | 0.0 | |||||||
| 08 | 01:55 | Calm | 10.00 | Fair | CLR | 53.6 | 53.6 | 66 | 53.1 | 100% | 30 | 0.0 | |||||
| 08 | 01:35 | Calm | 8.00 | Fair | CLR | 53.6 | 53.6 | 100% | 30 | 0.0 | |||||||
| 08 | 01:15 | Calm | 10.00 | Fair | CLR | 55.4 | 55.4 | 100% | 29.99 | 0.0 | |||||||
| 08 | 00:55 | Calm | 10.00 | Fair | CLR | 53.6 | 53.6 | 100% | 30 | 0.0 | |||||||
| 08 | 00:35 | Calm | 8.00 | Fair | CLR | 55.4 | 55.4 | 100% | 30 | 0.0 | |||||||
| 08 | 00:15 | Calm | 10.00 | Fair | CLR | 55.4 | 55.4 | 100% | 29.99 | 0.0 | |||||||
| 07 | 23:55 | Calm | 10.00 | Fair | CLR | 57.2 | 57.2 | 100% | 29.99 | 0.0 | |||||||
| 07 | 23:35 | Calm | 10.00 | Fair | CLR | 55.4 | 55.4 | 100% | 29.99 | 0.0 | |||||||
| 07 | 22:55 | Calm | 10.00 | Fair | CLR | 57.2 | 57.2 | 100% | 29.98 | 0.0 | |||||||
| 07 | 22:35 | Calm | 10.00 | A Few Clouds | FEW049 | 57.2 | 57.2 | 100% | 29.98 | 0.0 | |||||||
| 07 | 22:15 | Calm | 10.00 | A Few Clouds | FEW049 | 59 | 59 | 100% | 29.98 | 0.0 | |||||||
| 07 | 21:55 | Calm | 10.00 | Fair | CLR | 59 | 59 | 100% | 29.97 | 0.0 | |||||||
| 07 | 21:35 | Calm | 10.00 | Fair | CLR | 60.8 | 60.8 | 100% | 29.96 | 0.0 | |||||||
| 07 | 21:15 | Calm | 10.00 | Fair | CLR | 60.8 | 60.8 | 100% | 29.95 | 0.0 | |||||||
| 07 | 20:55 | Calm | 10.00 | Fair | CLR | 62.6 | 62.6 | 100% | 29.95 | 0.0 | |||||||
| 07 | 20:35 | Calm | 10.00 | Fair | CLR | 62.6 | 62.6 | 100% | 29.95 | 0.0 | |||||||
| 07 | 20:15 | Calm | 10.00 | Fair | CLR | 64.4 | 62.6 | 94% | 29.94 | 0.0 | |||||||
| 07 | 19:55 | Calm | 10.00 | Fair | CLR | 66.2 | 62.6 | 70.2 | 63.7 | 88% | 29.94 | 0.0 | |||||
| 07 | 19:35 | Calm | 10.00 | Fair | CLR | 66.2 | 60.8 | 83% | 29.93 | 0.0 | |||||||
| 07 | 19:15 | N 3 | 10.00 | Fair | CLR | 66.2 | 60.8 | 83% | 29.93 | 0.0 | |||||||
| 07 | 18:55 | NW 6 | 10.00 | Fair | CLR | 68 | 60.8 | 78% | 29.93 | 0.0 | |||||||
| 07 | 18:35 | NW 7 | 10.00 | A Few Clouds | FEW055 | 68 | 59 | 73% | 29.93 | 0.0 | |||||||
| 07 | 18:15 | N 8 | 10.00 | Mostly Cloudy | FEW037 BKN050 | 68 | 59 | 73% | 29.92 | 0.0 | |||||||
| 07 | 17:55 | N 8 | 10.00 | Mostly Cloudy | FEW044 BKN050 | 68 | 59 | 73% | 29.93 | 0.0 | |||||||
| 07 | 17:35 | N 8 | 10.00 | Partly Cloudy | FEW036 SCT048 | 69.8 | 59 | 69% | 29.92 | 0.0 | |||||||
| 07 | 17:15 | N 8 | 10.00 | Overcast | BKN038 OVC047 | 69.8 | 59 | 69% | 29.91 | 0.0 | |||||||
| 07 | 16:55 | NW 6 | 10.00 | Mostly Cloudy | BKN040 | 69.8 | 60.8 | 73% | 29.91 | 0.0 | |||||||
| 07 | 16:35 | N 8 | 6.00 | Mostly Cloudy with Haze | BKN038 | 69.8 | 60.8 | 73% | 29.91 | 0.0 | |||||||
| 07 | 16:15 | N 9 | 10.00 | Overcast | OVC038 | 68 | 59 | 73% | 29.91 | 0.0 | |||||||
| Date | Time (edt) | Wind (mph) | Vis. (mi.) | Weather | Sky Cond. | Air | Dwpt | Max. | Min. | Relative Humidity | Wind Chill (°F) | Heat Index (°F) | altimeter (in) | sea level (mb) | 1 hr | 3 hr | 6 hr |
| 6 hour | |||||||||||||||||
| Temperature (ºF) | Pressure | Precipitation (in) | |||||||||||||||